Theta_e
303 303 303 304 304 304 304 304 305 305 305 305 305 306 306 313 319 320 317 317 316 316 319 319 323 331 339 348 353 354 355 356 351 350 348 349 350 353 353 351 351 350 346 342 347
303 303 303 303 304 304 304 304 304 305 305 305 305 306 306 312 315 321 323 319 315 315 315 323 320 337 343 349 352 353 353 354 347 344 346 347 351 353 352 352 350 347 346 343 346
303 303 304 304 304 304 304 304 304 304 304 305 306 306 307 310 314 323 321 319 317 314 315 320 327 326 329 335 348 350 354 349 348 345 345 345 344 351 352 353 349 345 348 343 346
304 304 304 304 305 304 305 305 305 305 305 305 306 308 309 314 322 324 320 320 319 314 316 316 321 323 324 328 335 346 346 348 347 345 345 343 344 352 352 352 349 347 347 342 345
304 304 305 305 305 305 306 307 309 310 308 309 308 310 312 313 314 324 321 321 319 315 317 317 317 318 323 326 328 337 342 345 345 344 344 343 344 347 349 351 348 344 342 344 347
304 304 305 305 305 305 308 311 312 310 310 310 311 310 312 316 318 321 322 323 320 316 317 318 318 321 323 326 329 337 338 342 343 344 344 343 343 352 352 350 348 344 343 345 348
304 304 305 305 305 305 308 311 311 309 313 310 312 312 315 311 317 326 324 324 322 319 317 318 319 321 324 327 329 330 337 339 340 345 345 343 346 356 352 350 349 347 346 347 349
304 305 305 305 306 305 309 312 310 312 316 316 319 317 316 312 313 315 323 324 324 321 319 319 318 321 320 323 323 331 331 335 335 345 345 344 349 352 351 351 350 349 348 348 349
305 305 306 305 306 305 310 312 309 311 317 310 319 321 318 316 320 323 320 323 325 322 319 318 318 319 320 320 320 324 330 333 335 344 346 346 351 352 353 351 350 350 349 349 348
308 307 307 307 305 306 311 311 308 309 320 310 320 320 317 318 320 323 323 324 325 322 320 319 319 315 316 317 322 325 331 332 335 343 345 348 348 351 351 352 351 350 350 349 348
308 309 309 308 306 307 312 309 307 307 307 307 307 310 310 310 310 320 322 324 325 324 320 321 318 318 319 319 322 327 329 332 335 336 345 348 348 349 351 351 352 351 351 350 349
307 308 309 309 306 310 312 308 308 308 307 309 310 309 310 311 309 318 321 324 323 322 321 322 322 320 322 322 322 325 328 332 333 335 335 346 348 347 348 348 350 349 348 350 351
307 308 310 310 307 307 308 308 308 308 306 308 312 312 312 311 310 312 315 321 323 320 322 324 327 324 325 325 325 326 326 330 333 333 333 347 350 347 345 342 345 347 348 348 349
307 309 310 310 307 308 307 307 308 308 304 309 312 312 311 312 312 314 314 316 322 322 320 324 326 327 328 328 327 326 327 329 332 332 334 334 355 348 346 344 346 346 348 347 347
305 308 310 307 307 307 307 308 309 309 308 313 311 311 309 310 312 314 314 315 319 320 318 321 328 328 330 330 329 328 327 329 331 331 331 333 343 348 347 346 346 346 347 346 346
304 306 310 308 308 308 308 308 309 306 311 311 310 308 308 308 309 312 311 313 316 320 319 321 323 329 330 330 330 328 328 328 329 326 331 332 331 342 349 347 345 344 345 345 340
304 305 311 310 310 310 309 309 305 307 309 309 307 307 307 308 308 311 310 311 313 319 321 323 323 322 330 331 330 330 326 330 328 329 329 328 328 330 344 344 344 343 345 345 341
304 307 312 310 310 310 310 305 309 309 307 307 307 307 308 309 308 309 309 310 315 317 319 321 323 323 323 330 331 329 329 326 330 327 329 324 327 328 339 341 343 343 344 344 342
303 312 312 312 312 311 310 306 308 308 307 307 307 307 307 308 309 310 308 312 314 315 316 317 322 325 326 326 330 330 330 323 320 320 322 323 324 325 326 339 343 344 343 343 342
303 311 312 312 312 311 304 307 309 308 307 307 307 307 306 306 310 309 310 312 312 314 313 315 320 322 325 327 328 329 323 325 317 325 323 322 323 326 325 324 334 340 344 343 343
303 309 312 312 311 310 305 305 308 308 308 308 307 307 306 306 306 307 311 311 312 313 312 313 315 322 322 326 329 325 327 324 322 318 323 323 324 322 323 323 323 332 343 343 344
304 305 311 309 308 307 306 308 309 308 308 307 307 306 307 307 308 310 310 312 311 312 312 313 317 320 321 322 324 330 322 322 324 320 318 320 325 327 325 324 325 325 340 343 347
305 308 309 309 305 305 306 308 309 309 308 307 307 306 306 308 309 311 311 311 310 311 313 313 319 318 322 320 321 322 328 320 317 316 320 324 325 323 322 325 327 327 332 345 348
307 304 308 307 306 306 306 308 309 309 309 308 307 306 307 306 307 310 310 310 309 309 311 310 313 317 319 322 320 322 323 323 322 322 321 322 323 324 324 326 326 327 331 341 347
307 304 306 304 305 305 305 307 309 309 309 308 308 308 307 307 307 308 308 309 308 309 310 309 313 311 313 315 318 322 327 325 322 322 323 323 324 324 323 328 327 330 333 339 347
306 307 306 305 306 305 306 307 309 310 309 309 309 309 309 304 306 307 307 307 308 309 308 308 311 310 312 321 324 327 329 328 324 323 324 321 324 323 326 332 333 333 333 341 346
306 306 306 306 306 306 307 308 308 307 308 309 308 308 308 307 306 307 307 306 308 310 310 309 308 309 315 323 329 330 329 330 325 323 324 324 322 329 334 330 329 335 337 339 346
Wind_Speed
22 23 23 23 23 24 24 24 23 21 20 19 16 16 17 16 19 22 31 26 21 15 8 18 19 14 21 18 13 3 1 3 3 9 6 8 7 18 11 23 5 11 23 46 44
23 23 24 24 25 25 25 26 25 23 20 20 19 16 15 17 21 29 23 21 20 19 24 21 25 23 15 16 10 9 4 7 8 7 8 16 11 16 11 13 16 25 36 48 38
23 24 25 26 26 27 27 26 26 23 23 21 20 17 14 15 18 13 2 12 26 28 25 22 16 24 15 13 17 11 8 10 12 7 4 3 8 13 22 7 24 38 48 51 39
25 26 26 26 27 27 27 26 25 25 25 24 20 17 13 8 5 3 4 5 19 31 27 28 23 16 8 10 21 6 18 19 23 11 5 8 8 17 17 11 29 39 54 55 43
27 27 27 28 28 27 25 25 26 27 26 26 22 18 13 8 24 9 8 3 17 35 34 32 30 19 9 14 21 15 18 20 26 16 15 12 9 4 6 24 32 40 46 45 41
28 29 29 29 30 27 25 25 24 27 27 26 22 19 10 7 7 7 23 9 11 33 35 31 22 32 9 17 15 11 26 29 23 13 2 3 6 5 24 38 37 40 41 38 37
29 29 29 30 29 28 24 23 28 36 27 17 17 17 15 30 7 6 15 20 16 21 37 38 20 26 15 4 38 30 18 15 13 20 10 8 4 9 22 29 36 34 36 36 32
32 32 33 32 32 30 24 24 30 25 19 19 13 12 14 11 11 21 18 22 21 17 26 32 34 22 15 14 11 9 8 11 9 17 11 16 7 15 37 38 35 37 35 35 34
35 35 34 33 31 28 23 27 30 14 15 25 6 6 14 6 11 9 22 26 24 18 22 24 25 19 11 4 5 5 9 6 5 21 10 4 11 17 30 37 39 37 39 39 37
37 38 36 34 29 23 22 26 27 16 15 19 5 9 8 5 13 18 8 25 28 21 18 19 16 6 7 5 12 6 5 6 10 14 10 12 14 23 36 34 35 37 39 42 47
37 41 40 34 28 18 21 26 31 10 26 24 30 30 42 33 34 19 6 24 26 23 9 19 11 18 24 16 5 5 7 10 7 9 22 18 20 26 34 28 31 32 37 39 43
40 41 44 38 27 11 15 19 20 22 20 29 14 17 21 22 16 21 8 18 16 17 10 4 20 19 8 10 11 15 10 13 15 15 7 23 22 23 22 28 38 37 37 40 38
39 41 42 40 22 12 13 19 21 25 4 17 8 15 22 15 7 24 13 9 5 8 16 20 7 18 15 16 16 16 15 14 9 8 6 22 12 17 11 15 25 27 40 48 51
39 42 43 36 10 20 17 21 22 29 4 7 8 11 27 14 3 25 16 17 7 15 12 16 21 18 20 21 20 18 19 18 14 8 7 8 8 17 19 20 15 31 35 37 44
38 41 37 22 18 17 22 21 24 5 3 5 9 12 25 16 15 22 25 13 19 11 10 22 21 24 22 27 19 19 10 15 17 6 1 13 5 8 20 21 18 28 40 37 40
38 37 28 12 13 16 23 27 6 5 5 5 9 17 22 25 22 23 25 26 19 18 20 16 19 21 25 18 19 13 11 10 11 4 9 20 7 7 19 30 28 34 41 45 39
39 36 21 9 10 18 22 24 5 3 10 9 8 14 8 17 13 17 16 14 7 10 18 20 24 23 14 19 13 16 7 8 5 7 9 12 5 8 31 33 33 33 44 49 42
42 33 9 4 9 15 20 5 3 9 3 5 10 9 10 20 8 17 14 12 14 16 7 16 19 25 17 15 18 12 16 6 10 5 11 6 8 7 25 44 50 49 53 56 44
43 17 10 14 14 11 8 3 4 6 6 7 7 5 6 14 10 9 10 1 11 20 13 9 20 8 26 21 18 14 17 10 5 1 3 4 5 5 8 14 28 37 36 36 39
40 14 8 20 10 9 3 5 3 9 6 5 5 5 7 10 7 13 6 5 14 17 19 5 9 15 27 16 22 23 8 10 4 11 5 6 6 9 8 10 18 22 38 49 50
32 12 10 19 10 6 2 4 5 16 9 4 3 3 3 5 4 7 6 13 13 18 19 11 5 11 2 15 27 5 18 7 6 6 8 4 9 7 10 11 11 17 42 47 45
19 4 17 27 6 5 3 7 12 11 7 4 2 3 3 5 4 3 7 4 11 11 14 9 5 6 13 13 2 25 7 12 9 10 4 4 13 5 11 12 15 18 42 47 51
18 8 18 14 4 4 7 7 6 10 8 3 1 2 4 3 3 2 4 8 9 5 5 8 3 8 8 4 3 5 13 9 6 7 10 11 10 4 8 8 22 29 35 49 56
9 4 9 8 10 2 5 6 9 14 4 7 4 4 3 3 5 3 6 5 9 10 7 12 4 10 8 6 10 4 11 8 16 9 10 11 12 8 14 15 10 21 32 51 54
3 2 1 4 6 10 9 6 11 7 4 8 4 3 3 5 3 4 7 9 7 4 3 2 7 7 17 26 24 23 12 13 12 12 13 11 8 9 10 11 7 20 32 39 47
4 3 3 9 9 8 5 4 10 7 6 10 5 13 11 6 7 12 13 7 3 3 1 4 5 11 17 17 17 17 7 7 15 11 6 7 8 9 6 12 6 16 29 34 45
8 13 8 5 3 2 3 4 10 17 11 13 14 14 12 11 17 21 24 20 8 6 4 4 3 6 6 9 6 4 8 1 8 10 11 7 9 2 2 8 11 16 25 27 34
Wind_Direction
7 4 1 358 355 351 348 343 341 339 332 325 318 310 303 285 271 263 254 243 230 217 185 174 172 171 184 202 196 220 67 233 218 188 121 20 194 164 147 139 173 178 160 156 151
6 3 360 357 354 350 346 342 340 338 335 327 317 310 300 293 286 268 279 253 227 212 210 178 179 176 186 208 208 201 198 229 203 207 171 171 183 141 135 138 106 107 140 154 153
5 2 359 356 354 349 346 342 338 336 333 330 323 312 298 294 300 291 226 227 206 208 208 188 172 181 203 219 213 208 233 235 252 229 225 181 142 172 138 153 161 145 152 159 156
2 359 356 355 352 348 344 340 337 332 329 324 322 314 299 280 253 149 95 84 192 193 194 189 185 189 176 211 227 259 239 241 262 251 203 160 132 141 178 169 169 163 159 160 167
1 358 355 354 352 349 347 342 341 332 325 319 315 313 294 250 251 212 186 115 177 185 193 191 195 196 197 204 239 236 249 253 247 237 254 125 61 346 177 151 154 151 155 161 166
360 356 354 352 350 349 350 349 347 341 328 320 304 299 266 247 310 191 224 234 201 192 195 192 201 197 219 233 205 232 238 252 260 216 144 121 65 65 138 146 149 154 164 166 170
359 355 352 351 350 346 348 351 345 337 327 310 297 288 255 249 233 169 204 223 235 217 200 202 188 191 220 257 236 248 264 264 253 153 174 143 68 104 143 144 153 162 167 172 178
357 355 351 352 349 344 350 347 346 344 4 352 303 275 258 282 260 226 208 222 225 229 223 211 199 216 245 268 312 227 241 253 245 180 162 165 177 147 164 157 169 168 175 180 186
356 353 349 349 347 341 348 345 346 342 335 348 324 283 265 270 273 306 232 222 206 210 213 205 200 223 246 220 308 243 241 223 221 183 153 186 125 166 177 174 167 173 178 184 190
357 350 346 344 347 342 343 346 359 7 328 335 316 301 281 354 320 305 281 203 194 191 195 198 202 168 221 161 215 220 195 227 230 194 159 186 150 173 189 184 179 179 185 186 188
355 352 344 343 346 342 347 359 13 346 312 284 270 269 282 293 291 285 329 197 203 181 177 196 193 206 213 210 233 250 216 251 264 203 195 191 170 183 179 189 178 185 191 194 196
350 347 343 341 344 352 359 29 7 328 303 319 324 282 284 310 299 265 303 206 188 209 179 158 218 217 192 210 210 236 242 253 268 269 171 189 183 182 176 190 180 182 190 195 196
347 345 340 338 343 345 359 359 355 353 290 298 353 16 0 322 244 295 292 277 212 214 203 209 233 210 201 224 220 222 227 243 233 286 304 160 166 159 197 208 203 206 199 189 193
346 346 340 333 0 357 357 347 353 340 32 279 1 14 358 344 263 359 315 243 256 222 219 226 236 198 212 220 209 221 225 240 248 247 253 186 168 196 179 212 215 211 223 200 195
345 349 343 341 347 359 354 354 346 24 327 61 17 19 1 31 332 344 4 335 224 251 180 223 200 219 216 218 205 224 218 233 241 229 260 258 117 207 184 200 217 222 221 213 203
347 348 337 345 14 3 355 350 5 52 268 329 37 357 2 15 350 355 5 9 306 223 261 233 241 210 228 227 222 206 213 248 241 185 242 253 158 181 185 206 209 220 218 215 212
347 348 326 333 357 1 347 353 44 114 342 360 357 7 20 352 343 15 5 14 11 327 235 232 236 237 223 220 223 218 153 223 256 227 230 243 183 217 200 209 204 206 211 213 223
348 348 348 80 358 351 341 34 78 348 33 325 353 19 23 3 347 348 1 358 30 9 313 216 234 217 217 214 206 214 207 163 209 196 229 163 211 249 194 206 216 206 202 204 209
349 11 73 22 329 313 335 10 221 343 322 350 1 26 16 356 330 352 357 162 41 33 10 331 234 248 222 218 195 203 213 184 143 244 150 225 230 284 203 191 206 209 210 217 214
350 359 49 350 320 296 96 232 268 312 347 42 50 46 340 349 11 349 339 317 352 23 359 304 292 236 231 213 223 210 166 188 177 223 236 276 219 214 225 208 206 198 197 210 210
352 341 337 338 331 303 178 258 326 358 41 59 51 347 304 318 358 316 294 337 358 342 345 317 259 299 268 215 215 195 207 198 158 157 216 224 255 191 223 227 186 195 195 201 201
350 341 340 339 42 21 33 326 320 5 14 40 57 21 325 305 283 324 297 275 322 4 331 319 285 283 240 237 269 214 192 197 203 213 208 179 254 213 218 223 231 211 197 198 197
338 298 342 23 47 351 321 312 315 358 344 51 335 98 206 238 258 184 265 296 304 22 12 348 344 314 305 21 276 208 218 208 159 140 205 211 245 233 251 241 236 219 179 193 194
335 345 335 20 31 40 332 289 327 331 292 9 272 307 311 295 216 245 265 307 352 317 350 5 261 254 278 296 329 257 226 203 192 197 192 214 257 294 287 295 282 187 175 183 189
343 327 2 308 335 325 296 266 300 325 351 352 332 300 297 270 270 239 295 267 357 326 84 355 269 263 268 277 272 260 257 208 195 186 195 212 205 245 263 270 234 168 164 167 178
303 302 275 278 272 295 292 292 308 326 346 311 282 317 310 231 224 276 260 266 157 176 338 232 267 305 290 257 220 239 249 260 209 180 179 167 225 227 264 288 108 146 153 167 178
290 288 262 250 267 264 255 294 296 309 290 267 315 306 287 276 271 278 253 256 204 165 197 202 256 346 269 320 186 78 342 335 203 184 183 183 226 185 107 358 11 109 121 155 179